EW2244 Weather Reports


Display with metric or nautical units.
time (UTC)temp
F
wind
direction
speed
MPH
gust
MPH
rain 1hr
in
rain 24hr
in
rain mn
in
humidity
%
barometer
mb
20260509152123 75 253 1.0 7.0 0.00 0.00 0.00 42 1015.5
20260509151155 75 173 1.0 3.0 0.00 0.00 0.00 42 1015.4
20260509150122 74 103 0.0 4.0 0.00 0.00 0.00 43 1015.4
20260509145131 75 206 0.0 3.0 0.00 0.00 0.00 41 1015.4
20260509144118 74 128 2.0 5.0 0.00 0.00 0.00 44 1015.4
20260509143149 74 94 1.0 7.0 0.00 0.00 0.00 45 1015.5
20260509142116 74 288 1.0 4.0 0.00 0.00 0.00 45 1015.5
20260509141120 74 113 2.0 4.0 0.00 0.00 0.00 43 1015.6
20260509140128 74 163 1.0 8.0 0.00 0.00 0.00 48 1015.8
20260509135119 73 92 3.0 6.0 0.00 0.00 0.00 48 1015.8
20260509134127 73 74 2.0 7.0 0.00 0.00 0.00 45 1016.0
20260509133132 73 197 3.0 10.0 0.00 0.00 0.00 46 1016.1
20260509132120 73 74 3.0 7.0 0.00 0.00 0.00 45 1016.3
20260509131132 73 92 1.0 7.0 0.00 0.00 0.00 49 1016.4
20260509130119 74 53 1.0 5.0 0.00 0.00 0.00 46 1016.4
20260509125127 74 165 2.0 8.0 0.00 0.00 0.00 49 1016.4
20260509124115 74 173 2.0 6.0 0.00 0.00 0.00 47 1016.4
20260509123124 74 82 3.0 8.0 0.00 0.00 0.00 49 1016.5
20260509122129 74 112 1.0 6.0 0.00 0.00 0.00 46 1016.5
20260509121116 73 48 2.0 7.0 0.00 0.00 0.00 45 1016.5
20260509120125 74 109 1.0 7.0 0.00 0.00 0.00 46 1016.6
20260509115117 73 82 2.0 5.0 0.00 0.00 0.00 49 1016.7
20260509114125 73 155 2.0 4.0 0.00 0.00 0.00 49 1016.7
20260509113133 73 192 0.0 4.0 0.00 0.00 0.00 44 1016.8
20260509112142 72 69 2.0 4.0 0.00 0.00 0.00 47 1016.8
20260509111131 72 89 1.0 5.0 0.00 0.00 0.00 48 1017.0
20260509110120 72 5 0.0 6.0 0.00 0.00 0.00 52 1017.1
20260509105125 72 52 2.0 5.0 0.00 0.00 0.00 54 1017.2
20260509104153 72 28 3.0 7.0 0.00 0.00 0.00 51 1017.3
20260509103123 72 78 2.0 5.0 0.00 0.00 0.00 56 1017.6
20260509102131 72 61 1.0 8.0 0.00 0.00 0.00 55 1017.6
20260509101118 72 139 1.0 7.0 0.00 0.00 0.00 53 1017.7
20260509100146 71 57 2.0 6.0 0.00 0.00 0.00 58 1017.8
20260509095117 71 72 2.0 4.0 0.00 0.00 0.00 53 1017.7
20260509094124 70 192 1.0 6.0 0.00 0.00 0.00 55 1017.8
20260509093128 70 171 1.0 4.0 0.00 0.00 0.00 56 1017.8
20260509092117 69 192 0.0 6.0 0.00 0.00 0.00 56 1017.8
20260509091128 69 32 1.0 5.0 0.00 0.00 0.00 59 1017.9
20260509090155 67 16 2.0 3.0 0.00 0.00 0.00 61 1017.9
20260509085120 67 15 3.0 6.0 0.00 0.00 0.00 59 1018.0
20260509084130 67 21 2.0 4.0 0.00 0.00 0.00 59 1018.1
20260509083122 66 22 0.0 3.0 0.00 0.00 0.00 61 1018.1
20260509082130 67 23 1.0 6.0 0.00 0.00 0.00 58 1018.0
20260509081118 67 19 3.0 5.0 0.00 0.00 0.00 59 1018.0
20260509080128 67 54 1.0 6.0 0.00 0.00 0.00 59 1018.1
20260509075132 67 51 1.0 4.0 0.00 0.00 0.00 60 1018.2
20260509074121 66 11 1.0 4.0 0.00 0.00 0.00 64 1018.2
20260509073127 65 75 2.0 4.0 0.00 0.00 0.00 66 1018.2
20260509072116 64 34 1.0 5.0 0.00 0.00 0.00 64 1018.2
20260509071121 63 350 1.0 5.0 0.00 0.00 0.00 69 1018.2
20260509070129 62 34 2.0 4.0 0.00 0.00 0.00 69 1018.1
20260509065137 62 24 2.0 4.0 0.00 0.00 0.00 67 1018.1
20260509064123 62 33 1.0 4.0 0.00 0.00 0.00 70 1018.2
20260509063135 61 48 1.0 2.0 0.00 0.00 0.00 71 1018.2
20260509062120 60 46 1.0 3.0 0.00 0.00 0.00 73 1018.1
20260509061126 59 40 2.0 4.0 0.00 0.00 0.00 72 1018.1
20260509060153 58 24 0.0 2.0 0.00 0.00 0.00 76 1018.1
20260509055125 57 24 0.0 5.0 0.00 0.00 0.00 75 1018.0
20260509054132 57 360 1.0 5.0 0.00 0.00 0.00 76 1017.9
20260509053120 56 33 0.0 3.0 0.00 0.00 0.00 78 1017.9
20260509052148 54 308 1.0 2.0 0.00 0.00 0.00 81 1018.0
20260509051118 53 308 0.0 3.0 0.00 0.00 0.00 83 1017.9
20260509050126 53 308 0.0 2.0 0.00 0.00 0.00 84 1017.8
20260509045135 52 308 1.0 3.0 0.00 0.00 0.00 85 1017.8
20260509044123 52 309 0.0 1.0 0.00 0.00 0.00 85 1017.7
20260509043156 52 309 1.0 3.0 0.00 0.00 0.00 86 1017.6
20260509042121 53 311 1.0 3.0 0.00 0.00 0.00 84 1017.5
20260509041128 53 311 0.0 1.0 0.00 0.00 0.00 81 1017.4
20260509040116 54 311 0.0 3.0 0.00 0.00 0.00 79 1017.3
20260509035128 55 134 0.0 4.0 0.00 0.00 0.00 78 1017.3
20260509034134 54 118 1.0 3.0 0.00 0.00 0.00 78 1017.3
20260509033143 54 51 1.0 4.0 0.00 0.00 0.00 80 1017.2
20260509032127 53 51 0.0 4.0 0.00 0.00 0.00 81 1017.3
20260509031117 53 218 1.0 3.0 0.00 0.00 0.00 83 1017.4
20260509030126 53 222 0.0 2.0 0.00 0.00 0.00 83 1017.3
20260509025132 54 219 0.0 2.0 0.00 0.00 0.00 81 1017.3
20260509024120 54 219 0.0 2.0 0.00 0.00 0.00 79 1017.4
20260509023152 54 215 0.0 2.0 0.00 0.00 0.00 79 1017.5
20260509022118 54 215 0.0 2.0 0.00 0.00 0.00 79 1017.4
20260509021127 55 224 1.0 3.0 0.00 0.00 0.00 79 1017.2
20260509020153 55 157 1.0 3.0 0.00 0.00 0.00 78 1017.1
20260509015144 55 95 2.0 3.0 0.00 0.00 0.00 78 1017.1
20260509014130 55 163 0.0 3.0 0.00 0.00 0.00 78 1017.3
20260509013119 54 174 0.0 3.0 0.00 0.00 0.00 81 1017.3
20260509012127 53 169 2.0 5.0 0.00 0.00 0.00 84 1017.4
20260509011116 52 213 0.0 0.0 0.00 0.00 0.00 87 1017.4
20260509010124 52 213 0.0 1.0 0.00 0.00 0.00 87 1017.6
20260509005131 53 213 0.0 2.0 0.00 0.00 0.00 86 1017.6
20260509004116 52 213 1.0 2.0 0.00 0.00 0.00 87 1017.6
20260509003129 52 213 0.0 2.0 0.00 0.00 0.00 88 1017.5
20260509002147 52 213 2.0 4.0 0.00 0.00 0.00 89 1017.5
20260509001133 52 24 1.0 3.0 0.00 0.00 0.00 88 1017.5
20260509000119 52 34 1.0 2.0 0.00 0.00 0.00 88 1017.5
20260508235133 52 34 0.0 1.0 0.00 0.00 0.00 87 1017.4
20260508234118 53 34 0.0 2.0 0.00 0.00 0.00 87 1017.5
20260508233148 53 34 1.0 2.0 0.00 0.00 0.00 85 1017.5
20260508232134 55 34 1.0 3.0 0.00 0.00 0.00 81 1017.6
20260508231123 56 32 1.0 4.0 0.00 0.00 0.00 77 1017.4
20260508230150 56 325 1.0 6.0 0.00 0.00 0.00 79 1017.4
20260508225117 55 261 0.0 3.0 0.00 0.00 0.00 81 1017.4
20260508224126 54 263 0.0 2.0 0.00 0.00 0.00 85 1017.4
20260508223119 53 230 1.0 3.0 0.00 0.00 0.00 88 1017.4
20260508222127 53 230 1.0 2.0 0.00 0.00 0.00 88 1017.4
20260508221132 53 230 0.0 2.0 0.00 0.00 0.00 88 1017.5
20260508220120 53 230 0.0 2.0 0.00 0.00 0.00 88 1017.5
20260508215133 54 230 0.0 3.0 0.00 0.00 0.00 88 1017.5
20260508214118 54 230 0.0 2.0 0.00 0.00 0.00 88 1017.4
20260508213126 54 230 0.0 2.0 0.00 0.00 0.00 88 1017.4
20260508212133 53 230 1.0 3.0 0.00 0.00 0.00 89 1017.4
20260508211122 53 230 1.0 3.0 0.00 0.00 0.00 89 1017.3
20260508210147 53 230 1.0 4.0 0.00 0.00 0.00 90 1017.3
20260508205150 54 309 1.0 2.0 0.00 0.00 0.00 90 1017.2
20260508204134 54 309 0.0 3.0 0.00 0.00 0.00 89 1017.2
20260508203119 54 309 1.0 2.0 0.00 0.00 0.00 89 1017.2
20260508202128 54 309 0.0 2.0 0.00 0.00 0.00 89 1017.1
20260508201155 55 309 0.0 1.0 0.00 0.00 0.00 89 1017.1
20260508200134 55 309 0.0 2.0 0.00 0.00 0.00 89 1017.1
20260508195138 55 309 1.0 3.0 0.00 0.00 0.00 89 1017.0
20260508194126 56 309 1.0 2.0 0.00 0.00 0.00 88 1016.9
20260508193136 56 309 0.0 3.0 0.00 0.00 0.00 87 1016.8
20260508192122 57 309 1.0 3.0 0.00 0.00 0.00 87 1016.6
20260508191129 57 309 1.0 3.0 0.00 0.00 0.00 87 1016.4
20260508190119 58 310 0.0 1.0 0.00 0.00 0.00 85 1016.3
20260508185147 59 310 0.0 2.0 0.00 0.00 0.00 86 1016.2
20260508184133 59 310 0.0 1.0 0.00 0.00 0.00 86 1016.1
20260508183120 60 310 0.0 2.0 0.00 0.00 0.00 84 1015.9
20260508182131 61 310 0.0 1.0 0.00 0.00 0.00 82 1015.9
20260508181117 61 310 0.0 2.0 0.00 0.00 0.00 83 1015.8
20260508180126 61 310 0.0 2.0 0.00 0.00 0.00 82 1015.8
20260508175153 62 310 0.0 1.0 0.00 0.00 0.00 81 1015.7
20260508174125 63 310 0.0 1.0 0.00 0.00 0.00 79 1015.6
20260508173151 64 310 0.0 0.0 0.00 0.00 0.00 71 1015.6
20260508172118 65 310 0.0 2.0 0.00 0.00 0.00 72 1015.6
20260508171125 66 310 0.0 2.0 0.00 0.00 0.00 65 1015.5
20260508170117 66 310 0.0 2.0 0.00 0.00 0.00 67 1015.5
20260508165122 67 310 0.0 1.0 0.00 0.00 0.00 62 1015.4
20260508164128 67 310 0.0 2.0 0.00 0.00 0.00 59 1015.3
20260508163134 68 310 0.0 2.0 0.00 0.00 0.00 61 1015.3
20260508162127 67 338 0.0 4.0 0.00 0.00 0.00 63 1015.3
20260508161134 66 213 0.0 1.0 0.00 0.00 0.00 65 1015.4
20260508160120 65 213 0.0 1.0 0.00 0.00 0.00 69 1015.6
20260508155128 64 213 0.0 2.0 0.00 0.00 0.00 71 1015.7
20260508154120 64 213 0.0 0.0 0.00 0.00 0.00 73 1015.7
20260508153129 64 213 0.0 1.0 0.00 0.00 0.00 70 1015.8